This is the latest recevied weather packets stored in our database for station/object VE2JJ-13. If no packets are shown the sender has not sent any weather packets the latest 10 day(s).
| Time | Temp. | Humidity | Pressure | Rain* | Wind** | Luminosity | Snow |
|---|---|---|---|---|---|---|---|
| 1777674047 | 12.22° C | 40% | 1003.1 hPa | 0 mm | - | - | - |
| 1777673755 | 12.22° C | 40% | 1003.1 hPa | 0 mm | - | - | - |
| 1777673418 | 12.22° C | 40% | 1003.1 hPa | 0 mm | - | - | - |
| 1777673084 | 12.22° C | 38% | 1003 hPa | 0 mm | - | - | - |
| 1777672787 | 12.78° C | 38% | 1003 hPa | 0 mm | - | - | - |
| 1777672457 | 12.78° C | 38% | 1003 hPa | 0 mm | - | - | - |
| 1777672155 | 12.78° C | 38% | 1003 hPa | 0 mm | - | - | - |
| 1777671829 | 12.78° C | 38% | 1003 hPa | 0 mm | - | - | - |
| 1777671496 | 13.33° C | 38% | 1002.9 hPa | 0 mm | - | - | - |
| 1777671196 | 12.78° C | 42% | 1002.9 hPa | 0 mm | - | - | - |
| 1777670864 | 13.33° C | 41% | 1002.8 hPa | 0 mm | - | - | - |
| 1777670566 | 13.33° C | 40% | 1002.8 hPa | 0 mm | - | - | - |
| 1777670235 | 13.33° C | 42% | 1002.8 hPa | 0 mm | - | - | - |
| 1777669937 | 12.78° C | 43% | 1003 hPa | 0 mm | - | - | - |
| 1777669605 | 13.89° C | 35% | 1003 hPa | 0 mm | - | - | - |
| 1777668945 | 13.33° C | 38% | 1003 hPa | 0 mm | - | - | - |
| 1777668316 | 12.78° C | 39% | 1003 hPa | 0 mm | - | - | - |
| 1777668019 | 13.33° C | 39% | 1002.9 hPa | 0 mm | - | - | - |
| 1777667686 | 13.33° C | 38% | 1002.9 hPa | 0 mm | - | - | - |
| 1777667356 | 13.33° C | 39% | 1002.9 hPa | 0 mm | - | - | - |
| 1777667059 | 13.33° C | 39% | 1003 hPa | 0 mm | - | - | - |
| 1777666754 | 13.89° C | 38% | 1003 hPa | 0 mm | - | - | - |
| 1777666458 | 14.44° C | 39% | 1003 hPa | 0 mm | - | - | - |
| 1777665830 | 12.78° C | 41% | 1002.9 hPa | 0 mm | - | - | - |
| 1777665525 | 13.33° C | 39% | 1002.9 hPa | 0 mm | - | - | - |
* Rain latest hour (hover to see other rain measurements)
** Current wind speed in m/s (hover to see current wind gust speed)